PA3DZX-13 Weather Reports


time (UTC)temp
C
wind
direction
speed
KPH
gust
KPH
rain 1hr
cm
rain 24hr
cm
rain mn
cm
humidity
%
barometer
mb
20260508125613 15 120 9.7 20.9 0.00 0.00 0.00 55 1018.8
20260508124112 15 113 9.7 20.9 0.00 0.00 0.00 56 1018.8
20260508122612 15 89 9.7 20.9 0.00 0.00 0.00 55 1018.8
20260508121111 15 100 9.7 20.9 0.00 0.00 0.00 57 1019.0
20260508115612 15 107 9.7 20.9 0.00 0.00 0.00 55 1018.9
20260508114111 15 58 9.7 17.7 0.00 0.00 0.00 57 1018.9
20260508112612 13 98 9.7 20.9 0.00 0.00 0.00 58 1019.2
20260508111110 13 123 9.7 17.7 0.00 0.00 0.00 60 1019.2
20260508105611 13 89 9.7 17.7 0.00 0.00 0.00 56 1019.2
20260508104110 15 73 9.7 20.9 0.00 0.00 0.00 59 1019.1
20260508102610 15 86 9.7 20.9 0.00 0.00 0.00 58 1019.1
20260508101109 13 78 9.7 24.1 0.00 0.00 0.00 60 1019.2
20260508095609 13 71 9.7 17.7 0.00 0.00 0.00 59 1019.2
20260508094109 13 71 12.9 20.9 0.00 0.00 0.00 62 1019.3
20260508092608 12 75 9.7 20.9 0.00 0.00 0.00 61 1019.3
20260508091107 12 80 12.9 20.9 0.00 0.00 0.00 64 1019.4
20260508085607 12 82 12.9 20.9 0.00 0.00 0.00 65 1019.4
20260508084106 11 112 12.9 24.1 0.00 0.00 0.00 68 1019.4
20260508082607 11 74 9.7 20.9 0.00 0.00 0.00 72 1019.3
20260508081106 11 72 9.7 20.9 0.00 0.00 0.00 72 1019.4
20260508075606 10 100 9.7 20.9 0.00 0.00 0.00 77 1019.5
20260508074105 10 86 9.7 20.9 0.00 0.00 0.00 75 1019.4
20260508072605 10 111 9.7 17.7 0.00 0.00 0.00 80 1019.4
20260508071105 10 107 6.4 12.9 0.00 0.00 0.00 82 1019.3
20260508065604 8 86 3.2 9.7 0.00 0.00 0.00 87 1019.0
20260508064104 7 99 3.2 9.7 0.00 0.00 0.00 90 1019.0
20260508062605 6 70 3.2 6.4 0.00 0.00 0.00 98 1018.9
20260508061103 5 71 3.2 9.7 0.00 0.00 0.00 99 1018.9
20260508055604 5 68 6.4 6.4 0.00 0.00 0.00 99 1018.8
20260508054102 3 64 6.4 9.7 0.00 0.00 0.00 99 1018.8
20260508052603 3 66 6.4 9.7 0.00 0.00 0.00 99 1018.8
20260508051102 2 62 0.0 3.2 0.00 0.00 0.00 99 1018.8
20260508045602 0 67 0.0 3.2 0.00 0.00 0.00 99 1018.8
20260508044101 1 66 3.2 6.4 0.00 0.00 0.00 99 1018.7
20260508042602 1 61 3.2 6.4 0.00 0.00 0.00 98 1018.4
20260508041101 2 69 3.2 6.4 0.00 0.00 0.00 99 1018.6
20260508035601 1 68 3.2 6.4 0.00 0.00 0.00 99 1018.4
20260508034101 1 55 3.2 6.4 0.00 0.00 0.00 99 1018.4
20260508032601 1 42 3.2 3.2 0.00 0.00 0.00 99 1018.4
20260508031100 1 42 3.2 3.2 0.00 0.00 0.00 99 1018.4
20260508025559 1 57 3.2 6.4 0.00 0.00 0.00 99 1018.4
20260508024059 1 42 3.2 6.4 0.00 0.00 0.00 99 1018.4
20260508022559 1 41 3.2 6.4 0.00 0.00 0.00 99 1018.6
20260508021059 1 47 3.2 6.4 0.00 0.00 0.00 98 1018.4
20260508015559 0 63 3.2 6.4 0.00 0.00 0.00 98 1018.5
20260508014058 1 67 3.2 6.4 0.00 0.00 0.00 99 1018.5
20260508012557 1 73 6.4 9.7 0.00 0.00 0.00 99 1018.5
20260508011057 1 69 6.4 6.4 0.00 0.00 0.00 98 1018.6
20260508005557 1 44 3.2 6.4 0.00 0.00 0.00 99 1018.6
20260508004057 2 51 3.2 3.2 0.00 0.00 0.00 99 1018.7
20260508002557 2 52 0.0 3.2 0.00 0.00 0.00 99 1018.5
20260508001057 1 52 0.0 3.2 0.00 0.00 0.00 98 1018.6
20260507235557 2 42 3.2 3.2 0.00 0.00 0.00 99 1018.6
20260507234057 1 36 0.0 3.2 0.00 0.00 0.00 99 1018.6
20260507232557 1 29 3.2 3.2 0.00 0.00 0.00 98 1018.6
20260507231057 2 35 3.2 3.2 0.00 0.00 0.00 99 1018.6
20260507225557 2 50 3.2 3.2 0.00 0.00 0.00 98 1018.6
20260507224057 3 35 3.2 3.2 0.00 0.00 0.00 99 1018.6
20260507222557 5 108 0.0 3.2 0.00 0.00 0.00 99 1018.4
20260507221056 3 105 0.0 3.2 0.00 0.00 0.00 95 1018.4
20260507215555 5 94 3.2 6.4 0.00 0.00 0.00 96 1018.3
20260507214055 5 88 3.2 6.4 0.00 0.00 0.00 92 1018.3
20260507212555 5 88 3.2 6.4 0.00 0.00 0.00 91 1018.2
20260507211056 6 87 3.2 6.4 0.00 0.00 0.00 88 1018.2
20260507205555 7 84 6.4 9.7 0.00 0.00 0.00 87 1018.0
20260507204055 7 81 6.4 9.7 0.00 0.00 0.00 86 1018.0
20260507202555 7 83 6.4 6.4 0.00 0.00 0.00 85 1017.8
20260507201054 7 85 3.2 6.4 0.00 0.00 0.00 84 1017.8
20260507195554 8 83 6.4 9.7 0.00 0.00 0.00 81 1017.7
20260507194053 8 83 6.4 12.9 0.00 0.00 0.00 79 1017.6
20260507192553 8 80 6.4 12.9 0.00 0.00 0.00 78 1017.4
20260507191053 10 82 6.4 9.7 0.00 0.00 0.00 77 1017.4
20260507185553 10 82 6.4 12.9 0.00 0.00 0.00 74 1017.2
20260507184053 10 83 6.4 17.7 0.00 0.00 0.00 72 1017.1
20260507182553 11 69 9.7 17.7 0.00 0.00 0.00 68 1017.1
20260507181052 11 61 9.7 17.7 0.00 0.00 0.00 68 1017.0
20260507175552 11 63 9.7 20.9 0.00 0.00 0.00 64 1016.9
20260507174052 12 79 9.7 20.9 0.00 0.00 0.00 65 1016.8
20260507172551 12 70 12.9 20.9 0.00 0.00 0.00 66 1016.7
20260507171050 12 92 12.9 20.9 0.00 0.00 0.00 66 1016.6
20260507165551 13 93 12.9 20.9 0.00 0.00 0.00 63 1016.5
20260507164050 12 85 12.9 20.9 0.00 0.00 0.00 64 1016.4
20260507162551 13 79 9.7 24.1 0.00 0.00 0.00 60 1016.2
20260507161050 13 103 12.9 24.1 0.00 0.00 0.00 63 1016.1
20260507155550 15 112 9.7 17.7 0.00 0.00 0.00 60 1016.0
20260507154049 13 107 12.9 20.9 0.00 0.00 0.00 62 1016.0
20260507152549 13 89 12.9 24.1 0.00 0.00 0.00 61 1015.9
20260507151049 13 69 9.7 24.1 0.00 0.00 0.00 56 1015.8
20260507145548 15 69 6.4 17.7 0.00 0.00 0.00 52 1015.8
20260507144048 15 70 3.2 12.9 0.00 0.00 0.00 46 1015.7
20260507142548 15 11 9.7 17.7 0.00 0.00 0.00 51 1015.9
20260507141047 15 47 6.4 17.7 0.00 0.00 0.00 47 1015.9
20260507135547 15 56 9.7 17.7 0.00 0.00 0.00 52 1015.9
20260507134047 15 65 6.4 17.7 0.00 0.00 0.00 52 1016.0
20260507132547 15 18 9.7 24.1 0.00 0.00 0.00 54 1016.0
20260507131046 15 11 12.9 24.1 0.00 0.00 0.00 54 1015.9